Home > Weather > Milan > Past weeks

Flag for Italy Past Weather in Milan, Italy — Yesterday and Last 2 Weeks

Now
86 °F

Passing clouds.


Feels Like: 85 °F
Forecast: 65 / 88 °F
Wind: 6 mph from East

Location: Milan / Linate

Current Time: Aug 27, 2016 at 7:19:28 PM

Latest Report: Aug 27, 2016 at 6:50 PM


Visibility: N/A

Pressure: 30.07 "Hg

Humidity: 40%

Dew Point: 59 °F

Location of MilanLocation

Past Weather in Milan — Graph

°F

Milan Temperature Yesterday

Maximum temperature yesterday: 84 °F (at 2:20 PM)
Minimum temperature yesterday: 70 °F (at 6:20 AM)
Average temperature yesterday: 77 °F

High & Low Weather Summary for the Past Weeks

 TemperatureHumidityPressure
High88 °F (Aug 15, 3:50 PM)94% (Aug 14, 3:50 AM)30.30 "Hg (Aug 14, 3:50 AM)
Low63 °F (Aug 13, 2:50 AM)26% (Aug 22, 12:20 AM)29.74 "Hg (Aug 17, 6:20 PM)
Average76 °F61%30.06 "Hg
* Reported Aug 12 5:20 PM — Aug 27 5:50 PM, Milan, Weather by CustomWeather, © 2016

Note: Actual official high and low records may vary slightly from our data, if they occured in-between our weather recording intervals... More about our weather records

Advertising

Milan Weather History for the Previous 24 Hours

Scroll right to see more
 ConditionsComfort  
Time TempWeatherWind HumidityBarometerVisibility
5:50 PM
Sat, Aug 27
88 °FPassing clouds.5 mph35%30.07 "HgN/A
5:20 PM86 °FPassing clouds.6 mph38%30.07 "HgN/A
4:50 PM88 °FPassing clouds.6 mph38%30.09 "HgN/A
4:20 PM88 °FPassing clouds.7 mph38%30.09 "HgN/A
3:50 PM88 °FPassing clouds.6 mph35%30.09 "HgN/A
3:20 PM86 °FSunny.5 mph38%30.09 "Hg10 mi
2:50 PM88 °FSunny.3 mph35%30.12 "Hg10 mi
2:20 PM86 °FSunny.3 mph38%30.12 "Hg10 mi
1:50 PM86 °FPassing clouds.5 mph38%30.12 "HgN/A
1:20 PM84 °FSunny.2 mph40%30.12 "Hg10 mi
12:50 PM84 °FPassing clouds.6 mph37%30.12 "HgN/A
12:20 PM84 °FSunny.5 mph40%30.15 "Hg10 mi
11:50 AM84 °FSunny.3 mph37%30.15 "Hg10 mi
11:20 AM82 °FPassing clouds.3 mph45%30.15 "HgN/A
10:50 AM81 °FPassing clouds.5 mph51%30.15 "HgN/A
10:20 AM81 °FSunny.2 mph54%30.15 "Hg10 mi
9:50 AM81 °FSunny.1 mph48%30.15 "Hg10 mi
9:20 AM77 °FSunny.1 mph61%30.15 "Hg10 mi
8:50 AM75 °FPassing clouds.No wind69%30.15 "HgN/A
8:20 AM72 °FScattered clouds.2 mph73%30.15 "HgN/A
7:50 AM72 °FSunny.1 mph73%30.15 "Hg10 mi
7:20 AM68 °FClear.1 mph78%30.15 "Hg10 mi
6:50 AM66 °FClear.No wind83%30.12 "Hg10 mi
6:20 AM66 °FClear.No wind83%30.12 "Hg10 mi
5:50 AM66 °FClear.No wind83%30.12 "Hg10 mi
5:20 AM70 °FClear.1 mph73%30.15 "Hg10 mi
4:50 AM70 °FClear.2 mph73%30.15 "Hg10 mi
4:20 AM68 °FClear.2 mph78%30.15 "Hg10 mi
3:50 AM70 °FClear.1 mph73%30.15 "Hg10 mi
3:20 AM70 °FClear.2 mph73%30.15 "Hg10 mi
2:50 AM72 °FClear.2 mph69%30.15 "Hg10 mi
2:20 AM72 °FClear.3 mph69%30.15 "Hg10 mi
1:50 AM70 °FClear.No wind73%30.15 "Hg10 mi
1:20 AM72 °FClear.No wind73%30.15 "Hg10 mi
12:50 AM72 °FClear.3 mph69%30.15 "Hg10 mi
12:20 AM73 °FClear.3 mph65%30.15 "Hg10 mi
11:50 PM
Fri, Aug 26
75 °FClear.3 mph61%30.12 "Hg10 mi
11:20 PM75 °FClear.5 mph61%30.12 "Hg10 mi
10:50 PM75 °FClear.3 mph61%30.12 "Hg10 mi
10:20 PM77 °FClear.2 mph57%30.12 "Hg10 mi
9:50 PM77 °FClear.2 mph57%30.12 "Hg10 mi
9:20 PM79 °FClear.2 mph54%30.09 "Hg10 mi
8:50 PM79 °FSunny.2 mph54%30.09 "Hg10 mi
8:20 PM79 °FSunny.3 mph54%30.09 "Hg10 mi
7:50 PM81 °FPassing clouds.5 mph48%30.09 "HgN/A
7:20 PM82 °FPassing clouds.5 mph45%30.07 "HgN/A
Weather by CustomWeather, © 2016

See weather overviewHow to use our weather pages